Weather History for Squamish, BC

Change the Weather History Date:

Monday, April 29, 2013

  Actual Average Record
Temperature  
Mean Temperature 45 °F -  
Max Temperature 56 °F - - ()
Min Temperature 34 °F - - ()
Degree Days  
Heating Degree Days 20    
Moisture  
Dew Point 33 °F    
Average Humidity 67    
Maximum Humidity 99    
Minimum Humidity 19    
Precipitation  
Precipitation 0.08 in - - ()
Sea Level Pressure  
Sea Level Pressure 29.97 in    
Wind  
Wind Speed 3 mph ()    
Max Wind Speed 10 mph    
Max Gust Speed -    
T = Trace of Precipitation, MM = Missing Value Source: Averaged Metar Reports

Daily Weather History Graph

Daily Weather History Graph

Search for Another Location

Airport:

Trip Planner

Search our weather history database for the weather conditions in past years. The results will help you decide how hot, cold, wet, or windy it might be!

Date:

Astronomy

Apr. 29, 2013 Rise Set
Actual Time 5:52 AM PDT 8:28 PM PDT
Civil Twilight 5:16 AM PDT 9:04 PM PDT
Nautical Twilight 4:30 AM PDT 9:50 PM PDT
Astronomical Twilight 3:36 AM PDT 10:45 PM PDT
Moon 12:12 AM PDT (4/29) 9:09 AM PDT (4/29)
Length of Visible Light 15h 48m
Length of Day
14h 35m
Waning Gibbous, 79% of the Moon is Illuminated
Apr 29
Waning Gibbous
May 2
Last Quarter
May 9
New
May 17
First Quarter
May 24
Full

Hourly Weather History & Observations

Time (PDT) Temp. Windchill Dew Point Humidity Pressure Visibility Wind Dir Wind Speed Gust Speed Precip Events Conditions
12:00 AM 44.2 °F 39.7 °F 42.1 °F 92% 29.82 in - South 8.1 mph - 0.04 in   Unknown
12:15 AM 42.6 °F 40.9 °F 41.0 °F 94% - - West 3.5 mph - N/A   Unknown
12:30 AM 42.3 °F 40.5 °F 40.6 °F 94% - - SSE 3.5 mph - N/A   Unknown
12:45 AM 42.8 °F - 40.3 °F 91% - - NE 1.2 mph - N/A   Unknown
1:00 AM 42.4 °F - 41.0 °F 95% 29.83 in - NE 2.3 mph - 0.04 in   Unknown
1:15 AM 42.1 °F - 41.0 °F 96% - - ENE 2.3 mph - N/A   Unknown
1:30 AM 41.4 °F 39.4 °F 40.6 °F 97% - - SW 3.5 mph - N/A   Unknown
1:45 AM 41.4 °F - 40.8 °F 98% - - North 2.3 mph - N/A   Unknown
2:00 AM 41 °F - 41 °F 98% 29.84 in - North 2.3 mph - -  
2:00 AM 41.2 °F - 40.6 °F 98% 29.84 in - North 2.3 mph - N/A   Unknown
2:15 AM 41.2 °F - 40.5 °F 97% - - NNW 2.3 mph - N/A   Unknown
2:30 AM 41 °F - 41 °F 98%  in - North 2.3 mph - -  
2:30 AM 41.4 °F - 40.6 °F 97% - - North 2.3 mph - N/A   Unknown
2:45 AM 41 °F - 40 °F 97%  in - Calm Calm - -  
2:45 AM 41.2 °F - 40.5 °F 97% - - Calm Calm - N/A   Unknown
3:15 AM 41.2 °F - 40.6 °F 98% - - East 2.3 mph - N/A   Unknown
3:30 AM 41.0 °F - 40.5 °F 98% - - WNW 1.2 mph - N/A   Unknown
3:45 AM 41.2 °F - 40.6 °F 98% - - NNE 1.2 mph - N/A   Unknown
4:00 AM 41.2 °F - 40.5 °F 97% 29.88 in - NNW 2.3 mph - 0.02 in   Unknown
4:15 AM 41.2 °F - 40.1 °F 96% - - SSE 1.2 mph - N/A   Unknown
4:45 AM 40.3 °F - 38.7 °F 94% - - East 1.2 mph - N/A   Unknown
5:00 AM 40 °F - 39 °F 94% 29.90 in - NNE 1.2 mph - -  
5:00 AM 39.7 °F - 38.8 °F 97% 29.90 in - NNE 1.2 mph - N/A   Unknown
5:15 AM 39.6 °F - 39.0 °F 98% - - ENE 2.3 mph - N/A   Unknown
5:30 AM 38.8 °F - 38.3 °F 98% - - East 2.3 mph - N/A   Unknown
5:45 AM 38.7 °F 36.3 °F 38.3 °F 99% - - SSE 3.5 mph - N/A   Unknown
6:00 AM 37.9 °F - 37.6 °F 99% 29.90 in - ENE 1.2 mph - N/A   Unknown
6:15 AM 37.2 °F 34.7 °F 36.9 °F 99% - - WNW 3.5 mph - N/A   Unknown
6:30 AM 38.1 °F - 37.9 °F 99% - - NE 2.3 mph - N/A   Unknown
6:45 AM 37.6 °F 35.1 °F 37.4 °F 99% - - NNE 3.5 mph - N/A   Unknown
7:00 AM 38.3 °F 34.8 °F 38.1 °F 99% 29.93 in - NNE 4.6 mph - N/A   Unknown
7:15 AM 38.1 °F - 37.9 °F 99% - - WSW 1.2 mph - N/A   Unknown
7:30 AM 38.7 °F - 38.5 °F 99% - - ENE 2.3 mph - N/A   Unknown
7:45 AM 39.0 °F - 38.7 °F 99% - - West 1.2 mph - N/A   Unknown
8:00 AM 40 °F - 40 °F 99% 29.96 in - West 1.2 mph - -  
8:00 AM 40.5 °F - 39.7 °F 97% 29.96 in - West 1.2 mph - N/A   Unknown
8:15 AM 40 °F - 39 °F 93%  in - ESE 1.2 mph - -  
8:15 AM 40.1 °F - 38.7 °F 95% - - ESE 1.2 mph - N/A   Unknown
8:30 AM 42 °F - 40 °F 89%  in - East 2.3 mph - -  
8:30 AM 42.1 °F - 39.9 °F 92% - - East 2.3 mph - N/A   Unknown
8:45 AM 42 °F - 39 °F 85%  in - WSW 2.3 mph - -  
8:45 AM 42.4 °F - 39.0 °F 88% - - WSW 2.3 mph - N/A   Unknown
9:00 AM 43.5 °F - 39.2 °F 85% 29.98 in - SSE 2.3 mph - N/A   Unknown
9:15 AM 43.5 °F 41.9 °F 36.1 °F 75% - - SSE 3.5 mph - N/A   Unknown
9:30 AM 44.4 °F 42.9 °F 34.7 °F 69% - - ESE 3.5 mph - N/A   Unknown
9:45 AM 45.5 °F 44.2 °F 36.1 °F 70% - - ESE 3.5 mph - N/A   Unknown
10:00 AM 45.5 °F 44.2 °F 34.0 °F 64% 29.98 in - SE 3.5 mph - N/A   Unknown
10:15 AM 45.1 °F 43.7 °F 32.0 °F 60% - - SSE 3.5 mph - N/A   Unknown
10:30 AM 45.5 °F - 34.5 °F 65% - - SE 1.2 mph - N/A   Unknown
10:45 AM 49.5 °F - 31.5 °F 50% - - South 5.8 mph - N/A   Unknown
11:00 AM 49 °F - 32 °F 39% 29.99 in - South 3.5 mph - -  
11:00 AM 48.9 °F - 31.8 °F 52% 29.99 in - South 3.5 mph - N/A   Unknown
11:15 AM 50.4 °F - 28.4 °F 43% - - SSE 2.3 mph - N/A   Unknown
11:30 AM 50.5 °F - 27.9 °F 42% - - South 3.5 mph - N/A   Unknown
11:45 AM 52.7 °F - 31.8 °F 45% - - West 6.9 mph - N/A   Unknown
12:00 PM 51.3 °F - 25.9 °F 37% 29.99 in - SE 5.8 mph - N/A   Unknown
12:15 PM 52.2 °F - 28.0 °F 39% - - South 6.9 mph - N/A   Unknown
12:30 PM 53.8 °F - 30.0 °F 40% - - West 4.6 mph - N/A   Unknown
12:45 PM 53.2 °F - 25.3 °F 34% - - SSE 10.4 mph - N/A   Unknown
1:00 PM 52.0 °F - 23.4 °F 33% 29.99 in - South 6.9 mph - N/A   Unknown
1:15 PM 52.9 °F - 24.8 °F 34% - - SE 3.5 mph - N/A   Unknown
1:30 PM 53.4 °F - 25.7 °F 34% - - West 2.3 mph - N/A   Unknown
1:45 PM 52.5 °F - 24.3 °F 33% - - North 4.6 mph - N/A   Unknown
2:00 PM 54 °F - 25 °F 20% 29.99 in - ESE 3.5 mph - -  
2:00 PM 54.1 °F - 24.8 °F 32% 29.99 in - ESE 3.5 mph - N/A   Unknown
2:15 PM 55 °F - 26 °F 20%  in - SSE 4.6 mph - -  
2:15 PM 55.2 °F - 25.5 °F 32% - - SSE 4.6 mph - N/A   Unknown
2:30 PM 56 °F - 25 °F 19%  in - SW 4.6 mph - -  
2:30 PM 55.9 °F - 25.2 °F 31% - - SW 4.6 mph - N/A   Unknown
2:45 PM 54 °F - 24 °F 20%  in - West 5.8 mph - -  
2:45 PM 54.0 °F - 24.4 °F 32% - - West 5.8 mph - N/A   Unknown
3:00 PM 54.7 °F - 23.4 °F 30% 29.99 in - WSW 5.8 mph - N/A   Unknown
3:15 PM 54.7 °F - 25.7 °F 33% - - West 5.8 mph - N/A   Unknown
3:30 PM 54.9 °F - 26.1 °F 33% - - West 5.8 mph - N/A   Unknown
3:45 PM 54.1 °F - 26.8 °F 35% - - WSW 5.8 mph - N/A   Unknown
4:00 PM 54.7 °F - 29.5 °F 38% 30.01 in - NNW 8.1 mph - N/A   Unknown
4:15 PM 55.8 °F - 28.9 °F 36% - - West 4.6 mph - N/A   Unknown
4:30 PM 54.7 °F - 31.6 °F 42% - - West 3.5 mph - N/A   Unknown
4:45 PM 54.7 °F - 30.7 °F 40% - - SW 4.6 mph - N/A   Unknown
5:00 PM 53 °F - 28 °F 26% 30.01 in - SW 3.5 mph - -  
5:00 PM 52.9 °F - 28.4 °F 39% 30.01 in - SW 3.5 mph - N/A   Unknown
5:15 PM 53.4 °F - 24.1 °F 32% - - SW 2.3 mph - N/A   Unknown
5:30 PM 53.2 °F - 26.1 °F 35% - - WSW 3.5 mph - N/A   Unknown
5:45 PM 52.3 °F - 22.6 °F 31% - - WSW 3.5 mph - N/A   Unknown
6:00 PM 52.0 °F - 21.2 °F 30% 30.02 in - SSW 4.6 mph - N/A   Unknown
6:15 PM 53.2 °F - 22.1 °F 30% - - West 3.5 mph - N/A   Unknown
6:30 PM 52.0 °F - 22.1 °F 31% - - SSW 4.6 mph - N/A   Unknown
6:45 PM 51.8 °F - 19.0 °F 28% - - SSW 5.8 mph - N/A   Unknown
7:00 PM 50.2 °F - 23.7 °F 36% 30.02 in - West 2.3 mph - N/A   Unknown
7:15 PM 48.9 °F - 30.7 °F 50% - - East 1.2 mph - N/A   Unknown
7:30 PM 47.5 °F - 31.3 °F 53% - - NNE 1.2 mph - N/A   Unknown
7:45 PM 46.6 °F - 32.9 °F 59% - - SSE 3.5 mph - N/A   Unknown
8:00 PM 46 °F - 35 °F 56% 30.02 in - East 2.3 mph - -  
8:00 PM 46.2 °F - 35.2 °F 66% 30.02 in - East 2.3 mph - N/A   Unknown
8:15 PM 44 °F - 33 °F 54%  in - North 2.3 mph - -  
8:30 PM 44 °F - 33 °F 54%  in - North 2.3 mph - -  
8:30 PM 43.9 °F - 31.3 °F 61% - - North 2.3 mph - N/A   Unknown
8:45 PM 44 °F - 32 °F 51%  in - NNE 2.3 mph - -  
8:45 PM 44.2 °F - 31.8 °F 62% - - NNE 2.3 mph - N/A   Unknown
9:00 PM 41.7 °F - 33.6 °F 73% 30.04 in - NNE 2.3 mph - N/A   Unknown
9:15 PM 40.6 °F 38.6 °F 33.6 °F 76% - - NE 3.5 mph - N/A   Unknown
9:30 PM 39.9 °F 37.8 °F 33.8 °F 79% - - NE 3.5 mph - N/A   Unknown
9:45 PM 37.8 °F - 31.3 °F 77% - - NW 1.2 mph - N/A   Unknown
10:00 PM 38.3 °F - 33.6 °F 83% 30.06 in - NNE 2.3 mph - N/A   Unknown
10:15 PM 37.8 °F - 33.1 °F 83% - - NNE 1.2 mph - N/A   Unknown
10:30 PM 37.2 °F - 33.3 °F 86% - - NNE 2.3 mph - N/A   Unknown
10:45 PM 37.0 °F - 34.0 °F 89% - - ESE 1.2 mph - N/A   Unknown
11:00 PM 36 °F - 33 °F 84% 30.07 in - NNE 2.3 mph - -  
11:00 PM 36.0 °F - 32.9 °F 89% 30.07 in - NNE 2.3 mph - N/A   Unknown
11:15 PM 35.1 °F - 31.6 °F 87% - - WSW 1.2 mph - N/A   Unknown
11:30 PM 34.3 °F 31.4 °F 31.8 °F 90% - - NNW 3.5 mph - N/A   Unknown
11:45 PM 34.5 °F - 31.6 °F 89% - - East 1.2 mph - N/A   Unknown